Date,TemperatureHighF,TemperatureAvgF,TemperatureLowF,DewpointHighF,DewpointAvgF,DewpointLowF,HumidityHigh,HumidityAvg,HumidityLow,PressureMaxIn,PressureMinIn,WindSpeedMaxMPH,WindSpeedAvgMPH,GustSpeedMaxMPH,PrecipitationSumIn
2013-1-1,47,43,38,45,40,28,95,89,65,30.19,29.99,4,0,4,0.97
2013-1-2,46,39,36,45,37,34,95,93,89,30.17,29.96,13,1,13,0.05
2013-1-3,38,34,30,34,31,23,94,87,74,30.38,30.14,10,1,10,0.00
2013-1-4,42,31,24,29,22,18,91,71,43,30.45,30.35,14,1,14,0.00
2013-1-5,49,36,24,34,24,19,87,66,35,30.44,30.31,6,0,6,0.03
2013-1-6,42,37,35,36,33,30,94,85,74,30.31,30.15,15,1,15,0.02
2013-1-7,52,37,26,33,27,24,92,68,36,30.44,30.27,12,1,12,0.01
2013-1-8,57,45,35,48,37,27,88,74,60,30.44,30.33,15,2,15,0.00
2013-1-9,59,54,50,54,50,47,92,88,81,30.45,30.37,13,1,13,0.00
2013-1-10,63,57,49,52,50,47,94,80,64,30.44,30.24,18,2,18,0.04
2013-1-11,61,58,54,59,56,52,95,94,92,30.24,30.09,16,1,16,0.46
2013-1-12,69,61,58,62,58,55,98,89,67,30.16,30.04,8,0,8,0.03
2013-1-13,66,63,60,58,56,53,93,78,71,30.08,29.99,19,1,19,0.60
2013-1-14,60,54,45,58,52,44,96,95,93,30.15,29.98,14,0,14,1.78
2013-1-15,59,54,46,58,53,45,96,96,95,30.11,29.94,9,0,9,2.29
2013-1-16,59,55,52,58,54,50,96,95,93,30.00,29.88,15,1,15,0.71
2013-1-17,54,45,32,51,44,29,96,93,81,30.25,29.63,25,1,25,1.31
2013-1-18,49,35,29,31,26,22,89,71,48,30.53,30.25,10,1,10,0.00
2013-1-19,52,36,28,31,26,21,90,69,35,30.50,30.27,7,0,7,0.00
2013-1-20,55,40,30,36,30,26,92,69,43,30.28,30.13,13,1,13,0.00
2013-1-21,46,35,27,33,24,13,94,67,40,30.20,30.10,22,2,22,0.01
2013-1-22,34,27,21,14,8,5,59,46,32,30.36,30.17,21,3,21,0.00
2013-1-23,45,32,25,27,18,6,74,55,42,30.43,30.22,13,1,13,0.00
2013-1-24,41,36,28,35,20,8,80,54,32,30.40,30.17,24,3,24,0.00
2013-1-25,37,29,23,36,21,7,94,73,41,30.41,30.19,25,3,25,0.34
2013-1-26,49,37,31,36,31,25,100,80,53,30.37,30.22,11,1,11,0.00
2013-1-27,50,39,28,35,30,25,92,72,53,30.51,30.35,24,5,24,0.00
2013-1-28,59,47,39,51,40,29,93,77,67,30.46,30.28,17,1,17,0.00
2013-1-29,62,52,41,58,49,40,95,88,76,30.30,29.98,13,1,13,0.11
2013-1-30,65,56,37,60,53,34,94,89,81,29.98,29.50,36,3,36,3.07
2013-1-31,39,34,28,34,24,20,91,68,47,30.15,29.67,29,4,29,0.02
2013-2-1,39,28,21,29,14,6,84,55,35,30.42,30.09,30,4,30,0.00
2013-2-2,33,26,19,30,20,8,93,77,44,30.42,30.18,9,0,9,0.00
2013-2-3,42,34,29,32,28,23,93,78,55,30.18,30.05,23,2,23,0.42
2013-2-4,47,34,24,31,25,19,82,70,48,30.20,30.05,13,0,13,0.01
2013-2-5,52,40,34,42,34,27,91,80,65,30.10,30.00,5,0,5,0.00
2013-2-6,59,42,30,42,31,25,95,70,30,30.25,30.09,7,0,11,0.01
2013-2-7,50,46,36,44,37,28,92,72,47,30.22,29.94,20,4,20,0.15
2013-2-8,50,43,34,44,39,27,94,86,62,30.19,29.92,19,2,19,0.09
2013-2-9,61,41,26,33,27,23,90,61,30,30.35,30.15,16,1,16,0.01
2013-2-10,52,46,42,45,31,24,92,60,36,30.34,30.11,31,4,31,0.85
2013-2-11,53,49,44,50,46,38,98,89,74,30.14,30.04,21,2,21,0.30
2013-2-12,49,43,36,40,35,29,91,75,58,30.13,29.88,20,1,20,0.13
2013-2-13,48,41,32,42,36,29,92,85,75,29.98,29.72,26,5,26,0.07
2013-2-14,33,32,32,30,29,29,89,89,88,30.01,29.98,7,1,8,0.00
2013-2-16,34,28,23,25,16,10,82,62,44,30.15,29.96,22,5,22,0.01
2013-2-17,36,27,19,14,11,6,65,51,38,30.35,30.15,27,3,27,0.00
2013-2-18,54,36,22,29,22,13,83,57,35,30.43,30.18,21,1,21,0.00
2013-2-19,50,40,33,42,27,14,94,64,32,30.20,29.98,28,3,28,0.31
2013-2-20,45,34,26,17,12,8,58,42,22,30.22,30.15,20,2,20,0.00
2013-2-21,63,40,25,36,23,12,88,54,24,30.25,30.04,17,1,17,0.60
2013-2-22,45,42,37,43,38,34,92,87,81,30.21,30.04,27,5,27,0.69
2013-2-23,55,48,44,52,45,40,95,91,74,30.08,29.84,11,0,11,0.41
2013-2-24,59,44,34,42,32,25,94,66,30,30.05,29.91,17,1,17,0.00
2013-2-25,50,41,31,36,29,24,89,64,45,30.08,29.90,24,4,24,0.03
2013-2-26,50,42,38,43,39,32,92,86,71,29.90,29.56,25,5,25,1.05
2013-2-27,52,40,35,36,32,29,90,74,48,29.89,29.74,24,3,24,0.09
2013-2-28,38,33,30,32,26,23,82,76,71,30.02,29.84,21,3,21,0.00
2013-3-1,37,32,30,30,27,24,90,82,71,30.03,29.96,14,2,14,0.00
2013-3-2,35,30,26,28,26,18,91,82,68,30.06,29.95,17,3,17,0.02
2013-3-3,34,27,22,19,16,12,81,64,51,30.13,30.03,21,3,21,0.00
2013-3-4,52,37,23,31,22,11,74,56,35,30.23,30.08,13,1,13,0.00
2013-3-5,56,42,31,51,38,25,98,83,63,30.13,29.65,34,2,34,0.64
2013-3-6,31,28,25,26,24,18,92,85,70,30.25,29.83,31,6,31,0.00
2013-3-7,51,34,25,34,27,22,89,75,50,30.34,30.21,14,1,14,0.02
2013-3-8,60,40,26,32,25,19,93,62,22,30.38,30.25,11,1,11,0.00
2013-3-9,64,47,32,33,28,23,80,52,29,30.34,30.21,18,1,18,0.00
2013-3-10,63,54,48,39,33,29,57,45,33,30.24,30.08,20,4,20,0.00
2013-3-11,57,52,50,50,47,39,94,83,57,30.10,29.78,21,4,21,1.18
2013-3-12,53,43,34,48,35,29,98,77,48,30.11,29.81,18,3,18,0.03
2013-3-13,44,37,29,29,24,18,76,60,42,30.27,30.09,25,4,25,0.00
2013-3-14,48,36,23,22,17,14,71,47,28,30.37,30.26,18,2,18,0.00
2013-3-15,69,48,30,42,34,22,87,60,37,30.31,29.99,24,1,24,0.00
2013-3-16,72,61,53,49,43,40,63,53,42,29.99,29.81,19,2,19,0.00
2013-3-17,68,58,49,50,45,42,77,61,44,29.97,29.86,16,1,16,0.00
2013-3-18,56,49,46,48,45,43,93,86,70,29.95,29.80,25,5,25,0.42
2013-3-19,57,47,37,46,32,16,94,61,31,30.12,29.86,24,3,24,0.01
2013-3-20,53,42,34,29,17,10,75,38,25,30.14,29.89,23,3,23,0.00
2013-3-21,39,31,21,26,14,8,72,49,34,30.03,29.90,23,4,23,0.00
2013-3-22,44,35,26,30,21,12,69,56,41,30.11,30.02,8,0,8,0.00
2013-3-23,56,45,38,48,40,30,93,84,65,30.08,29.80,19,1,19,0.12
2013-3-24,56,48,37,48,44,30,93,86,72,29.89,29.47,27,4,27,1.42
2013-3-25,37,30,27,30,23,-100,92,75,67,30.06,29.62,28,2,28,0.03
2013-3-26,36,30,25,29,24,22,89,80,65,30.31,30.05,24,4,24,0.04
2013-3-27,47,36,28,25,22,19,82,58,37,30.37,30.28,19,3,19,0.00
2013-3-28,54,41,30,29,23,19,67,51,28,30.36,30.26,20,3,20,0.00
2013-3-29,50,40,28,36,29,23,86,67,44,30.39,30.26,14,1,14,0.00
2013-3-30,65,51,41,49,40,35,93,69,35,30.26,30.03,12,1,12,0.32
2013-3-31,61,54,51,53,51,49,93,88,68,30.03,29.85,13,1,13,0.48
2013-4-1,62,53,43,52,43,34,95,72,47,30.03,29.85,21,3,21,0.02
2013-4-2,60,47,37,34,27,19,72,48,22,30.17,30.02,19,2,19,0.00
2013-4-3,59,50,40,34,29,24,61,46,35,30.22,30.12,18,2,18,0.00
2013-4-4,50,41,36,39,34,27,91,77,41,30.18,29.96,25,5,25,0.61
2013-4-5,62,49,40,43,37,23,94,68,22,30.11,29.96,17,2,17,0.01
2013-4-6,68,52,34,40,35,32,91,56,30,30.22,30.11,18,1,18,0.00
2013-4-7,70,58,44,46,40,34,69,52,37,30.20,30.07,13,1,13,0.00
2013-4-8,75,62,50,52,48,43,85,61,41,30.13,30.03,19,1,19,0.00
2013-4-9,80,65,50,57,52,47,91,65,41,30.18,30.06,15,1,16,0.00
2013-4-10,85,68,52,57,53,49,92,64,35,30.11,29.91,12,1,12,0.00
2013-4-11,74,67,59,62,56,52,93,69,49,29.92,29.63,30,2,30,1.35
2013-4-12,64,57,49,58,48,37,94,73,44,29.92,29.60,17,3,17,0.59
2013-4-13,71,57,45,40,37,32,73,50,27,30.06,29.92,18,2,18,0.00
2013-4-14,65,54,42,49,41,34,90,64,38,30.06,29.92,22,3,22,0.03
2013-4-15,75,61,51,58,53,49,93,76,53,30.15,29.94,19,3,19,0.03
2013-4-16,81,67,58,62,57,54,89,72,48,30.23,30.11,15,2,15,0.00
2013-4-17,80,67,59,65,59,56,94,78,52,30.19,30.02,22,2,22,1.67
2013-4-18,68,64,58,60,58,56,94,83,71,30.04,29.88,14,1,14,0.00
2013-4-19,67,58,41,61,52,33,93,81,71,30.00,29.70,24,3,24,1.10
2013-4-20,60,47,36,35,29,24,77,52,33,30.28,30.00,16,3,16,0.00
2013-4-21,65,51,35,37,33,28,86,54,32,30.38,30.26,20,2,20,0.00
2013-4-22,69,55,44,42,37,36,73,53,31,30.34,30.14,15,3,16,0.00
2013-4-23,74,58,45,46,38,28,67,48,33,30.22,30.05,13,2,13,0.00
2013-4-24,70,58,50,58,51,45,92,78,59,30.12,30.01,16,1,16,0.26
2013-4-25,67,52,41,48,37,26,97,63,24,30.34,30.11,15,2,15,0.00
2013-4-26,73,54,36,48,36,27,87,53,29,30.41,30.27,17,1,17,0.00
2013-4-27,55,52,49,51,47,45,93,84,72,30.37,30.18,16,2,16,0.57
2013-4-28,54,52,50,53,50,47,94,92,85,30.19,30.00,17,2,17,2.11
2013-4-29,72,60,51,55,51,45,94,76,39,30.05,29.92,12,1,12,0.00
2013-4-30,76,61,46,56,51,44,94,72,42,30.11,29.96,17,1,17,0.00
2013-5-1,71,63,56,56,53,50,85,70,52,30.18,30.09,20,3,20,0.00
2013-5-2,66,59,56,56,52,50,85,78,68,30.19,30.12,19,4,19,0.00
2013-5-3,60,56,53,52,51,48,92,84,68,30.15,29.98,21,5,21,0.01
2013-5-4,56,52,49,49,47,41,92,84,69,29.99,29.85,31,7,31,0.76
2013-5-5,55,51,46,51,49,44,92,90,85,29.86,29.76,24,4,24,1.14
2013-5-6,53,48,40,46,44,39,95,86,70,29.93,29.77,14,1,14,0.22
2013-5-7,68,56,46,50,46,43,93,71,47,29.97,29.89,19,1,19,0.01
2013-5-8,68,59,52,56,53,49,94,80,62,30.06,29.93,11,1,11,0.03
2013-5-9,78,64,51,60,54,50,95,73,40,30.12,30.02,15,1,15,0.01
2013-5-10,74,63,52,61,55,50,94,77,56,30.10,29.92,14,1,14,0.05
2013-5-11,73,61,56,62,57,53,95,88,62,29.97,29.84,16,1,16,0.50
2013-5-12,62,54,47,53,42,30,95,66,36,30.11,29.92,19,2,19,0.00
2013-5-13,62,52,41,39,33,30,70,49,34,30.22,30.10,20,2,20,0.00
2013-5-14,75,58,38,52,44,32,87,62,43,30.26,30.10,18,1,18,0.00
2013-5-15,83,68,54,59,53,50,90,63,33,30.17,29.98,13,1,13,0.00
2013-5-16,80,66,55,61,56,53,93,71,45,30.05,29.95,8,0,8,0.00
2013-5-17,77,67,58,62,57,53,92,74,53,30.08,30.00,11,0,11,0.00
2013-5-18,68,64,60,64,61,57,95,89,76,30.06,30.00,6,0,6,0.34
2013-5-19,70,64,62,66,62,59,94,92,84,30.07,29.95,13,1,13,0.51
2013-5-20,82,69,58,68,62,56,95,81,53,30.10,29.98,11,1,11,0.05
2013-5-21,85,72,63,69,64,58,95,77,44,30.03,29.87,15,1,15,0.02
2013-5-22,82,70,61,69,63,59,93,79,53,29.97,29.81,15,1,15,0.03
2013-5-23,78,67,62,63,59,53,94,77,49,29.95,29.86,23,2,23,0.08
2013-5-24,70,61,52,54,46,37,84,60,35,30.22,29.94,19,3,19,0.00
2013-5-25,77,59,42,48,42,36,91,57,30,30.32,30.19,15,1,15,0.00
2013-5-26,75,61,48,53,46,39,84,61,36,30.28,30.16,12,0,12,0.00
2013-5-27,82,67,51,58,54,47,92,64,39,30.23,30.10,14,1,14,0.00
2013-5-28,82,70,62,62,58,56,84,67,43,30.17,30.09,12,1,12,0.00
2013-5-29,82,71,59,65,60,56,90,70,45,30.18,30.10,11,1,11,0.00
2013-5-30,79,70,61,64,60,57,89,72,53,30.22,30.11,15,1,15,0.00
2013-5-31,80,72,66,64,62,59,84,71,56,30.17,30.06,13,1,13,0.00
2013-6-1,79,72,66,66,63,60,92,76,61,30.08,29.96,11,1,11,0.56
2013-6-2,75,69,66,71,66,64,95,92,79,29.98,29.85,9,0,9,1.03
2013-6-3,80,70,63,67,64,59,95,81,55,29.95,29.84,11,1,11,0.01
2013-6-4,80,69,58,66,61,56,95,76,52,30.01,29.93,9,0,9,0.00
2013-6-5,81,71,63,69,64,60,93,80,60,30.01,29.87,16,1,16,1.40
2013-6-6,76,69,62,68,64,60,93,86,75,29.90,29.73,8,0,8,0.00
2013-6-7,81,70,62,69,64,60,94,83,58,29.82,29.65,11,1,12,0.13
2013-6-8,78,68,61,66,62,59,96,82,62,30.07,29.81,9,0,9,0.00
2013-6-9,81,70,63,69,65,60,95,85,62,30.09,29.97,12,0,12,0.27
2013-6-10,78,70,64,67,64,61,94,84,57,29.98,29.89,14,1,14,0.51
2013-6-11,82,73,66,71,67,64,95,82,60,30.00,29.92,16,1,16,0.41
2013-6-12,87,76,67,75,69,65,95,80,55,30.03,29.93,12,0,12,0.00
2013-6-13,85,76,68,74,69,66,95,81,59,29.94,29.68,19,1,19,0.27
2013-6-14,82,71,59,66,58,54,93,67,43,30.00,29.80,11,1,11,0.00
2013-6-15,82,70,58,64,59,52,92,69,49,30.11,30.00,10,0,10,0.00
2013-6-16,84,72,60,68,62,57,93,74,52,30.13,29.98,10,0,10,0.06
2013-6-17,76,70,67,70,66,64,95,90,75,30.03,29.91,18,0,18,1.95
2013-6-18,75,69,66,70,67,64,96,92,79,29.93,29.80,13,0,13,0.29
2013-6-19,81,71,64,69,65,62,96,83,61,30.07,29.88,7,0,7,0.01
2013-6-20,81,71,63,67,64,61,94,80,58,30.18,30.06,11,0,11,0.00
2013-6-21,81,70,64,67,63,61,94,80,56,30.22,30.14,12,0,12,0.00
2013-6-22,80,71,61,65,62,58,95,76,53,30.22,30.07,8,0,8,0.01
2013-6-23,81,71,60,71,64,58,94,80,63,30.18,30.07,11,0,11,0.00
2013-6-24,84,72,65,73,67,62,94,84,61,30.18,30.06,8,0,8,0.32
2013-6-25,82,72,65,70,67,63,95,84,62,30.14,30.01,10,0,10,0.00
2013-6-26,83,73,66,72,69,65,95,87,66,30.04,29.90,15,0,15,0.52
2013-6-27,82,75,69,74,70,64,94,84,71,29.95,29.76,19,1,19,0.10
2013-6-28,87,74,67,72,68,64,96,84,55,29.82,29.63,17,0,17,0.04
2013-6-29,82,73,65,69,64,59,95,75,49,29.70,29.63,12,1,12,0.00
2013-6-30,83,71,60,67,62,58,94,75,48,29.77,29.68,8,0,8,0.00
2013-7-1,79,69,64,68,65,62,95,86,61,29.91,29.75,9,0,9,0.50
2013-7-2,82,71,65,68,65,62,95,82,56,30.07,29.90,10,0,10,0.12
2013-7-3,69,66,64,67,65,62,96,94,92,30.16,30.04,8,0,8,3.48
2013-7-4,74,68,65,70,66,63,95,94,85,30.17,30.09,11,1,11,0.62
2013-7-5,76,69,66,70,66,64,95,90,76,30.19,30.11,8,0,8,0.36
2013-7-6,77,71,67,71,68,65,96,89,77,30.16,30.06,12,1,12,1.64
2013-7-7,79,72,68,71,68,67,96,89,71,30.14,30.06,8,0,8,0.01
2013-7-8,87,75,68,73,69,67,95,82,55,30.16,30.06,10,0,10,0.00
2013-7-9,87,75,69,74,70,67,95,85,61,30.13,30.02,9,0,9,0.08
2013-7-10,86,74,69,75,70,67,96,86,62,30.08,29.92,11,0,11,0.01
2013-7-11,80,74,69,73,70,68,95,86,73,29.94,29.84,7,0,7,0.00
2013-7-12,86,75,67,72,68,63,95,81,56,29.93,29.83,11,0,11,0.00
2013-7-13,76,70,66,67,64,62,89,81,72,30.05,29.91,18,2,18,0.00
2013-7-14,75,71,68,70,67,64,94,89,82,30.22,30.03,18,2,18,0.73
2013-7-15,82,73,67,70,67,64,93,82,62,30.27,30.19,14,1,14,0.01
2013-7-16,88,77,68,73,69,66,95,78,54,30.29,30.19,10,0,10,0.00
2013-7-17,90,75,68,75,69,65,95,83,49,30.26,30.09,17,0,17,0.12
2013-7-18,87,74,66,74,68,64,95,83,59,30.20,30.03,9,0,9,0.02
2013-7-19,86,74,66,74,69,65,95,84,61,30.10,29.97,12,0,12,0.00
2013-7-20,84,74,68,73,69,66,95,86,65,30.02,29.89,11,0,11,0.12
2013-7-21,85,73,69,73,69,66,95,87,63,30.00,29.89,11,0,11,0.43
2013-7-22,81,73,68,72,68,66,96,86,67,29.97,29.82,14,0,14,0.00
2013-7-23,81,73,67,72,68,65,93,84,70,29.91,29.79,16,1,16,0.02
2013-7-24,85,74,67,72,68,61,93,84,59,29.85,29.77,20,0,20,0.12
2013-7-25,85,72,64,71,66,63,95,82,53,29.99,29.83,12,0,12,0.00
2013-7-26,80,70,63,71,66,61,94,85,67,30.05,29.94,15,0,15,0.27
2013-7-27,80,72,66,69,66,63,95,84,60,29.99,29.85,8,0,8,0.00
2013-7-28,82,72,66,68,65,62,95,81,60,30.02,29.89,12,0,12,0.00
2013-7-29,80,69,61,64,60,53,92,76,42,30.17,30.01,12,0,12,0.00
2013-7-30,86,71,59,69,62,54,95,75,38,30.21,30.10,7,0,7,0.00
2013-7-31,76,72,68,70,67,64,93,85,75,30.12,29.93,8,0,8,0.10
2013-8-1,84,73,68,71,68,67,94,86,62,29.96,29.88,10,1,10,0.00
2013-8-2,84,76,66,71,67,64,95,75,56,30.02,29.95,7,0,7,0.00
2013-8-3,81,72,65,70,66,64,95,82,62,30.02,29.96,12,0,12,0.00
2013-8-4,84,74,67,71,66,58,95,78,50,30.01,29.94,12,1,12,0.00
2013-8-5,84,71,62,69,63,58,94,75,49,30.04,29.95,8,0,8,0.00
2013-8-6,82,74,67,72,67,60,92,79,62,29.99,29.93,7,0,7,0.00
2013-8-7,78,72,70,73,69,68,92,88,79,30.01,29.94,11,0,11,0.14
2013-8-8,80,76,71,73,72,69,94,85,76,30.03,29.96,7,0,7,0.13
2013-8-9,80,72,69,76,70,68,96,92,75,30.05,29.99,6,0,9,0.09
2013-8-10,78,74,70,74,71,68,96,90,77,30.11,30.04,16,0,16,0.56
2013-8-11,84,74,68,74,70,66,96,87,68,30.14,30.03,9,0,9,0.01
2013-8-12,87,74,69,74,70,68,96,87,64,30.09,29.95,9,0,9,0.05
2013-8-13,80,73,69,73,70,67,96,89,72,29.98,29.83,11,0,11,0.63
2013-8-14,80,71,67,68,66,61,95,84,57,30.00,29.87,12,0,12,0.00
2013-8-15,73,66,61,62,59,55,84,77,66,30.07,29.98,21,-2,21,0.00
2013-8-16,74,64,61,63,57,54,84,78,68,30.11,30.02,19,1,19,0.01
2013-8-17,68,64,62,63,59,56,94,85,74,30.12,30.05,14,1,14,0.37
2013-8-18,74,67,63,68,64,61,96,91,78,30.19,30.09,8,0,8,0.36
2013-8-19,75,69,64,70,66,63,96,92,82,30.15,30.04,8,0,8,0.73
2013-8-20,76,69,65,69,66,63,96,90,78,30.15,30.08,7,0,7,0.00
2013-8-21,72,70,67,70,68,66,95,93,88,30.21,30.10,6,0,6,0.33
2013-8-22,82,71,66,72,67,65,96,88,66,30.17,30.03,8,0,8,0.24
2013-8-23,85,73,65,72,67,64,96,84,60,30.07,29.95,8,0,9,0.00
2013-8-24,81,71,63,70,65,59,95,81,64,30.24,30.03,12,0,12,0.00
2013-8-25,79,69,61,65,59,53,79,71,57,30.34,30.22,12,0,12,0.00
2013-8-26,81,69,59,67,62,57,94,79,56,30.30,30.13,8,0,8,0.00
2013-8-27,83,70,62,70,65,60,96,84,58,30.16,30.01,7,0,7,0.00
2013-8-28,86,74,66,72,68,64,95,82,60,30.06,29.94,10,0,10,0.00
2013-8-29,85,76,68,74,70,66,94,82,66,29.99,29.89,11,1,11,0.00
2013-8-30,87,78,69,74,71,67,94,81,60,29.99,29.88,8,0,8,0.00
2013-8-31,85,74,69,73,70,67,95,87,64,29.94,29.86,8,0,8,0.00
2013-9-1,84,74,69,74,70,66,95,86,68,29.90,29.80,11,0,11,0.17
2013-9-2,80,72,68,71,68,66,95,87,72,29.94,29.82,10,0,10,0.00
2013-9-3,83,74,66,71,68,64,94,83,60,29.97,29.83,7,0,11,0.69
2013-9-4,83,71,64,70,66,62,95,84,60,30.09,29.95,7,0,7,0.01
2013-9-5,83,71,64,70,66,63,95,84,57,30.11,30.05,8,0,8,0.00
2013-9-6,84,71,65,68,64,62,94,80,52,30.13,30.03,9,0,9,0.01
2013-9-7,82,71,62,68,64,60,94,81,57,30.11,29.98,7,0,7,0.00
2013-9-8,83,72,64,70,65,61,95,81,52,30.01,29.92,10,0,10,0.00
2013-9-9,83,70,64,70,65,61,94,84,59,30.07,29.99,9,0,9,0.01
2013-9-10,84,75,64,71,67,62,95,76,53,30.21,30.11,8,0,8,0.00
2013-9-11,85,72,64,71,66,62,94,82,55,30.21,30.08,7,0,7,0.01
2013-9-12,78,71,67,71,67,64,94,88,75,30.09,29.88,19,0,19,0.33
2013-9-13,77,68,57,66,60,52,94,79,54,29.91,29.81,15,1,15,0.26
2013-9-14,75,61,51,59,54,49,93,77,50,30.09,29.89,12,0,12,0.00
2013-9-15,78,64,58,63,58,54,91,81,55,30.17,30.09,12,0,12,0.00
2013-9-16,80,68,60,67,60,57,94,79,52,30.15,30.06,9,0,9,0.00
2013-9-17,72,66,62,60,58,54,91,77,64,30.21,30.11,15,1,15,0.00
2013-9-18,70,64,60,62,57,52,91,77,69,30.23,30.12,12,0,12,0.00
2013-9-19,71,61,57,62,58,55,94,90,72,30.18,30.14,7,0,7,0.00
2013-9-20,78,71,60,68,63,58,94,78,62,30.07,29.90,8,0,8,0.00
2013-9-21,67,64,60,64,62,58,93,92,88,29.92,29.66,7,0,9,1.52
2013-9-22,74,62,53,60,56,51,94,83,54,29.90,29.75,3,0,9,0.00
2013-9-23,74,62,54,60,56,52,94,81,59,30.04,29.90,2,0,9,0.01
2013-9-24,70,62,57,62,58,54,92,86,76,30.04,29.90,12,0,12,0.00
2013-9-25,66,62,60,62,60,58,93,91,85,29.90,29.81,13,1,13,2.18
2013-9-26,76,65,58,65,60,56,93,85,62,30.01,29.86,10,0,10,0.00
2013-9-27,78,64,54,62,57,52,94,80,54,30.13,30.01,6,0,6,0.00
2013-9-28,73,62,55,60,55,51,90,80,59,30.20,30.09,11,0,11,0.00
2013-9-29,69,60,52,59,53,49,89,79,63,30.15,30.02,8,0,8,0.00
2013-9-30,70,60,53,60,55,51,94,84,60,30.09,29.99,8,0,8,0.00
2013-10-1,76,62,53,62,56,51,94,83,59,30.18,30.07,7,0,7,0.01
2013-10-2,80,65,56,65,59,54,94,82,55,30.18,30.05,4,0,4,0.00
2013-10-3,77,66,60,65,60,58,93,84,58,30.14,30.05,5,0,5,0.00
2013-10-4,83,66,57,66,60,55,94,83,54,30.17,30.07,7,0,7,0.01
2013-10-5,82,67,59,66,61,57,94,82,56,30.14,30.00,12,0,12,0.01
2013-10-6,76,67,61,65,62,58,93,83,63,30.04,29.84,11,0,11,0.25
2013-10-7,69,60,53,62,56,50,93,87,67,30.00,29.79,10,1,10,0.50
2013-10-8,73,60,51,59,52,49,94,79,58,30.14,29.99,15,0,15,0.00
2013-10-9,76,62,50,62,55,47,92,78,61,30.18,30.08,9,0,9,0.00
2013-10-10,72,59,51,57,53,49,94,81,54,30.13,30.02,12,0,12,0.01
2013-10-11,75,60,50,59,53,48,94,81,48,30.08,29.97,8,0,8,0.00
2013-10-12,74,60,52,60,55,50,94,83,59,30.12,30.01,10,0,10,0.01
2013-10-13,72,61,53,62,57,51,94,86,69,30.21,30.11,9,0,9,0.01
2013-10-14,72,64,59,62,59,56,95,85,68,30.20,30.09,8,0,8,0.00
2013-10-15,69,62,57,59,56,54,91,83,68,30.14,30.01,8,0,8,0.00
2013-10-16,67,61,57,60,56,53,92,85,71,30.06,29.95,3,0,5,0.01
2013-10-17,66,62,57,64,60,55,94,93,91,29.97,29.85,8,0,9,0.37
2013-10-18,67,56,51,56,52,49,94,86,66,30.02,29.92,6,0,6,0.00
2013-10-19,61,55,50,54,51,46,93,86,68,29.99,29.91,9,0,9,0.01
2013-10-20,65,50,42,47,43,40,93,79,46,30.10,29.98,7,0,7,0.01
2013-10-21,67,52,43,52,46,41,94,81,52,30.16,30.03,5,0,8,0.00
2013-10-22,66,56,52,54,50,47,93,81,54,30.06,29.84,9,0,9,0.01
2013-10-23,52,46,36,48,39,31,89,76,58,30.09,29.81,22,2,22,0.00
2013-10-24,56,42,33,40,35,30,91,76,54,30.23,30.07,12,1,12,0.00
2013-10-25,51,39,29,36,26,20,81,64,31,30.41,30.23,12,1,12,0.00
2013-10-26,57,41,29,35,30,26,91,67,38,30.39,30.19,11,0,11,0.00
2013-10-27,59,52,44,51,43,33,89,71,60,30.21,30.11,9,0,9,0.00
2013-10-28,61,55,52,55,51,49,93,87,69,30.29,30.15,7,0,7,0.05
2013-10-29,65,55,50,55,51,48,93,86,65,30.35,30.25,6,0,6,0.00
2013-10-30,72,60,53,58,54,50,94,81,57,30.32,30.15,9,0,9,0.00
2013-10-31,67,62,56,59,56,51,92,80,69,30.17,29.76,20,1,20,0.00
2013-11-1,71,63,54,61,53,43,92,72,42,29.81,29.66,23,1,23,0.22
2013-11-2,59,51,44,46,41,33,91,68,46,30.06,29.78,18,1,18,0.00
2013-11-3,60,47,40,39,36,32,84,67,39,30.34,30.05,4,0,8,0.00
2013-11-4,57,48,43,37,34,32,75,60,45,30.45,30.34,20,2,20,0.00
2013-11-5,64,52,42,39,34,30,68,51,33,30.47,30.35,21,4,23,0.00
2013-11-6,64,57,50,54,51,36,92,81,58,30.38,30.10,14,2,14,0.03
2013-11-7,59,52,38,55,44,29,93,76,45,30.20,30.01,18,2,18,0.24
2013-11-8,56,43,34,30,23,11,72,49,17,30.36,30.19,14,1,14,0.00
2013-11-9,56,46,34,39,29,23,75,53,36,30.37,30.25,15,0,15,0.00
2013-11-10,66,50,38,40,33,29,77,55,29,30.32,30.22,12,1,12,0.00
2013-11-11,64,47,33,36,31,27,87,56,28,30.33,30.18,6,0,6,0.00
2013-11-12,53,39,24,39,28,14,85,66,53,30.47,30.15,21,2,21,0.00
2013-11-13,45,30,19,19,15,12,78,56,30,30.63,30.47,9,0,9,0.00
2013-11-14,56,36,24,24,19,16,81,55,23,30.55,30.36,6,0,6,0.00
2013-11-15,51,49,38,49,46,25,93,89,60,30.34,30.17,15,1,15,0.21
2013-11-16,62,55,50,54,52,48,93,88,75,30.24,30.14,14,1,14,0.00
2013-11-17,60,59,56,58,56,53,95,90,85,30.17,29.90,14,2,14,0.18
2013-11-18,65,56,45,62,44,31,95,67,36,30.06,29.86,29,2,29,0.02
2013-11-19,55,44,36,33,28,25,66,54,34,30.20,30.03,11,1,11,0.00
2013-11-20,51,44,38,31,27,24,63,53,42,30.38,30.20,18,5,25,0.00
2013-11-21,57,52,45,52,47,30,90,82,69,30.42,30.32,18,6,18,0.00
2013-11-22,63,58,54,58,55,52,93,89,82,30.35,30.15,13,1,13,0.12
2013-11-23,57,47,33,54,40,17,93,79,34,30.28,30.11,17,2,17,0.01
2013-11-24,43,31,22,21,14,8,70,51,25,30.52,30.26,15,1,15,0.00
2013-11-25,43,34,27,31,14,5,87,45,26,30.52,30.26,24,4,24,0.05
2013-11-26,48,44,35,46,42,31,93,92,87,30.27,29.69,18,3,18,2.63
2013-11-27,41,30,21,39,25,14,93,81,67,30.26,29.68,28,4,28,0.09
2013-11-28,46,29,17,27,19,14,88,70,40,30.54,30.26,5,0,5,0.00
2013-11-29,54,37,26,32,26,21,91,67,41,30.61,30.49,20,1,20,0.00
2013-11-30,51,41,34,28,25,23,65,53,38,30.56,30.35,16,3,23,0.00
2013-12-1,53,43,37,39,32,26,80,64,42,30.35,30.04,10,0,10,0.00
2013-12-2,48,44,39,44,39,32,92,82,67,30.04,29.84,3,0,4,0.02
2013-12-3,54,50,47,50,47,44,94,90,85,29.93,29.84,11,2,13,0.08
2013-12-4,64,57,51,56,53,49,94,87,74,30.04,29.92,9,1,9,0.04
2013-12-5,67,61,56,63,59,54,94,92,82,30.07,29.96,8,0,8,0.45
2013-12-6,71,65,54,63,60,51,94,85,74,30.03,29.88,26,2,26,0.31
2013-12-7,54,43,38,52,41,37,94,93,91,30.32,29.99,15,1,15,0.17
2013-12-8,47,44,42,46,41,39,94,91,87,30.29,30.14,22,7,28,0.83
2013-12-9,54,51,47,52,49,46,94,94,93,30.15,29.99,13,1,13,0.84
2013-12-10,49,40,28,48,35,20,94,83,63,30.35,29.93,19,2,19,0.39
2013-12-11,49,33,23,29,22,18,98,67,32,30.51,30.34,9,0,9,0.00
2013-12-12,40,31,24,23,19,12,85,62,39,30.48,30.39,13,1,13,0.00
2013-12-13,48,35,21,27,20,14,86,57,36,30.46,30.24,20,1,20,0.00
2013-12-14,51,46,41,49,39,22,93,80,44,30.26,29.81,11,2,19,0.47
2013-12-15,49,34,26,47,31,24,93,88,82,30.22,29.81,20,3,20,0.03
2013-12-16,49,34,26,34,28,24,93,79,50,30.33,30.22,5,0,8,0.00
2013-12-17,56,40,29,37,31,24,93,72,45,30.28,30.08,20,2,20,0.01
2013-12-18,47,35,28,24,18,14,67,50,27,30.36,30.20,15,2,15,0.00
2013-12-19,62,42,27,32,24,18,81,54,26,30.40,30.24,12,1,12,0.00
2013-12-20,62,50,38,48,37,26,83,63,40,30.25,30.13,11,1,11,0.00
2013-12-21,66,61,54,62,57,48,92,86,81,30.14,29.91,24,2,24,0.10
2013-12-22,68,58,52,62,55,50,94,90,73,30.07,29.86,25,2,25,3.37
2013-12-23,52,45,32,50,42,29,94,91,82,30.26,30.00,16,2,16,0.07
2013-12-24,32,28,21,29,22,15,91,78,64,30.45,30.25,17,2,17,0.01
2013-12-25,41,29,20,23,18,16,90,67,43,30.53,30.40,15,1,15,0.00
2013-12-26,47,33,25,30,24,21,90,71,45,30.44,30.33,6,0,9,0.00
2013-12-27,51,35,25,30,25,22,92,70,37,30.52,30.39,5,0,5,0.00
2013-12-28,47,36,28,41,31,24,92,83,44,30.47,30.03,23,1,23,0.49
2013-12-29,46,44,39,45,41,36,93,90,83,30.06,29.87,19,3,19,0.20
2013-12-30,43,39,34,38,36,31,92,87,80,30.22,30.04,13,1,13,0.00
2013-12-31,42,34,28,32,26,19,91,74,49,30.43,30.20,8,1,11,0.00
2014-1-1,47,38,28,31,26,22,84,64,43,30.40,30.16,14,2,14,0.00
2014-1-2,46,36,17,44,32,12,95,86,73,30.16,29.76,18,2,25,0.38